Regional Weather Roundup
Issued by NWS State College, PA

Home | Current Version | Previous Version | Text Only | Print | Product List | Glossary On
Versions: 1 2 3 4 5 6 7 8 9 10 11 12 13 14 15 16 17 18 19 20 21 22 23 24 25 26 27 28 29 30 31 32 33 34 35 36 37 38 39 40 41 42 43 44 45 46 47 48 49 50
000
ASUS41 KCTP 231710
RWRCTP

REGIONAL WEATHER ROUNDUP
NATIONAL WEATHER SERVICE STATE COLLEGE PA
1200 PM EST THU FEB 23 2017

Note: "fair" indicates few or no clouds below 12,000 feet with no
significant weather and/or obstructions to visibility.

* = STATION THAT DOES NOT REPORT PRECIPITATION /E.G. RAIN...SNOW...ETC/
    THUNDER OR FOG.

PAZ002>004-007>009-013>016-020>023-029>032-231800-
WESTERN PENNSYLVANIA

CITY           SKY/WX    TMP DP  RH WIND       PRES   REMARKS
ERIE           CLOUDY    58  51  78 W15G22    29.73R
MEADVILLE      CLOUDY    60  53  77 SW14      29.76S
FRANKLIN*      CLOUDY    57  52  82 SW9       29.80S
NEW CASTLE     CLOUDY    61  55  81 SW8       29.80S
BEAVER COUNTY  CLOUDY    61  54  77 SW9       29.80F
BUTLER*        CLOUDY    61  54  77 SW14G20   29.82F
PITTSBURGH INT CLOUDY    62  55  77 SW9G17    29.81F
PITTSBURGH     PTSUNNY   66  53  63 SW12      29.80F
INDIANA*       CLOUDY    64  55  72 SW12      29.84F
LATROBE        PTSUNNY   66  55  68 SW14      29.83F
WASHINGTON CO* PTSUNNY   68  55  64 SW10G17   29.83F
$$

PAZ004>006-010>012-017>019-024>028-033>037-041-042-045-046-049>053-231800-
CENTRAL PENNSYLVANIA

CITY           SKY/WX    TMP DP  RH WIND       PRES   REMARKS
BRADFORD       CLOUDY    55  54  96 SW8       29.78F
DUBOIS         CLOUDY    57  52  83 SW12      29.80F HAZE
CLEARFIELD       N/A    N/A N/A N/A MISG      29.81F
JOHNSTOWN      PTSUNNY   62  53  72 S14G21    29.83F
ALTOONA        PTSUNNY   66  54  65 SW15G25   29.84F
STATE COLLEGE  MOSUNNY   63  54  72 SW13      29.82F
WILLIAMSPORT   CLOUDY    58  42  55 N3        29.82F
SELINSGROVE    PTSUNNY   62  50  64 SE8       29.83F
FT INDIANTOWN  CLOUDY    52  52 100 SE5       29.87F FOG
CAPITAL CITY   PTSUNNY   62  50  64 VRB3      29.86F
HARRISBURG     PTSUNNY   59  51  75 SE5       29.85F
YORK           SUNNY     69  55  60 W8        29.85F
$$

PAZ038>040-043-044-047-048-054-055-060>062-067>071-231800-
EASTERN PENNSYLVANIA

CITY           SKY/WX    TMP DP  RH WIND       PRES   REMARKS
SCRANTON       PTSUNNY   63  49  60 SW10      29.82F
MOUNT POCONO   CLOUDY    59  48  67 W9        29.84F
ALLENTOWN      CLOUDY    55  47  74 CALM      29.88F HAZE
QUAKERTOWN*    MOSUNNY   57  50  77 W3        29.88F
READING        MOSUNNY   59  53  80 VRB3      29.86F
LANCASTER      MOSUNNY   59  53  80 CALM      29.86F
COATESVILLE    SUNNY     63  54  72 SW8       29.88F
POTTSTOWN      SUNNY     60  52  74 N3        29.88F
BLUE BELL      SUNNY     59  52  77 SW3       29.87F
DOYLESTOWN     PTSUNNY   58  52  80 SW5       29.87F
WILLOW GROVE   NOT AVBL
NORTH PHILA    MOSUNNY   61  54  77 SW6       29.89F
PHILADELPHIA   MOSUNNY   59  53  80 SW7       29.89F
$$



USA.gov is the U.S. government's official web portal to all federal, state and local government web resources and services.